EHI
2 2 2 2 1 1 1 1 0 0 0 0 0 0 0 0 0 0 0 0 0 0 0 0 0 0 0 0 0 1 1 1 0 0 0 0 1 1
3 3 3 3 3 3 3 2 1 0 0 0 0 0 0 0 0 0 0 0 0 0 0 0 0 0 0 0 0 0 0 0 0 0 0 0 0 1
1 2 2 2 4 5 6 4 2 1 1 1 1 1 0 0 0 0 0 0 0 0 0 0 0 0 0 0 0 0 0 0 0 0 0 0 0 0
0 0 0 1 2 6 8 6 3 1 1 1 2 1 0 0 0 0 0 0 0 0 0 0 0 0 0 0 0 0 0 0 0 0 0 0 0 0
0 0 0 0 1 3 6 7 5 2 2 2 2 1 0 0 0 0 0 0 0 0 0 0 0 0 0 0 0 0 0 0 0 0 0 0 0 0
0 0 0 0 0 1 2 4 5 5 5 4 3 1 0 0 0 0 0 0 0 0 0 0 0 0 0 0 0 0 0 0 0 0 0 0 0 0
0 0 0 0 0 0 0 1 2 4 6 5 3 1 0 0 0 0 0 0 0 0 0 0 0 0 0 0 0 0 0 0 0 0 0 0 0 0
0 0 0 0 0 0 0 0 0 2 2 2 2 1 0 0 0 0 0 0 0 0 0 0 0 0 0 0 0 0 0 0 0 0 0 0 0 0
0 0 0 0 0 0 0 0 0 0 0 0 0 0 0 0 0 0 0 0 0 0 0 0 0 0 0 0 0 0 0 0 0 0 0 0 0 0
0 0 0 0 0 0 0 0 0 0 0 0 0 0 0 0 0 0 0 0 0 0 0 0 0 0 0 0 0 0 0 0 0 0 0 0 0 0
0 0 0 0 0 0 0 0 0 0 0 0 0 0 0 0 0 0 0 0 0 0 0 0 0 0 0 0 0 0 0 0 0 0 0 0 0 0
0 0 0 0 0 0 0 0 0 0 0 0 0 0 0 0 0 0 0 0 0 0 0 0 0 0 0 0 0 0 0 0 0 0 0 0 0 0
0 0 0 0 0 0 0 0 0 0 0 0 0 0 0 0 0 0 0 0 0 0 0 0 0 0 0 0 0 0 0 0 0 0 0 0 0 0
0 0 0 0 0 0 0 0 0 0 0 0 0 0 0 0 0 0 0 0 0 0 0 0 0 0 0 0 0 0 0 0 0 0 0 0 0 0
0 0 0 0 0 0 0 0 0 0 0 0 0 0 0 0 0 0 0 0 0 0 0 0 0 0 0 0 0 0 0 0 0 0 0 0 0 0
0 0 0 0 0 0 0 0 0 0 0 0 0 0 0 0 0 0 0 0 0 0 0 0 0 0 0 0 0 0 0 0 0 0 0 0 0 0
0 0 0 0 0 0 0 0 0 0 0 0 0 0 0 0 0 0 0 0 0 0 0 0 0 0 0 0 0 0 0 0 0 0 0 0 0 0
0 0 0 0 0 0 0 0 0 0 0 0 0 0 0 0 0 0 0 0 0 0 0 0 0 0 0 0 0 0 0 0 0 0 0 0 0 0
0 0 0 0 0 0 0 0 0 0 0 0 0 0 0 0 0 0 0 0 0 0 0 0 0 0 0 0 0 0 0 0 0 0 0 0 0 0
0 0 0 0 0 0 0 0 0 0 0 0 0 0 0 0 0 0 0 0 0 0 0 0 0 0 0 0 0 0 0 0 0 0 0 0 0 0
0 0 0 0 0 0 0 0 0 0 0 0 0 0 0 0 0 0 0 0 0 0 0 0 0 0 0 0 0 0 0 0 0 0 0 0 0 0
0 0 0 0 0 0 0 0 0 0 0 0 0 0 0 0 0 0 0 0 0 0 0 0 0 0 0 0 0 0 0 0 0 0 0 0 0 0
0 0 0 0 0 0 0 0 0 0 0 0 0 0 0 0 0 0 0 0 0 0 0 0 0 0 0 0 0 0 0 0 0 0 0 0 0 0
Wind_Speed
10 11 10 9 8 8 7 7 7 6 6 6 5 5 3 3 2 2 4 7 4 3 3 4 6 7 9 10 11 11 10 9 10 10 11 11 11 11
7 9 10 9 9 8 8 8 7 7 4 5 4 4 3 3 4 5 7 8 9 7 6 6 5 6 7 8 9 9 9 9 9 9 10 9 9 9
7 9 11 11 8 8 8 8 8 7 7 5 5 4 4 4 5 5 5 6 8 10 10 10 9 9 8 8 8 8 7 8 8 8 8 8 8 8
9 8 8 8 11 9 8 10 9 8 8 7 6 6 6 6 7 6 6 6 7 12 13 13 12 12 11 11 10 9 8 8 7 7 8 8 8 9
10 10 9 7 7 7 9 9 8 9 9 7 7 5 6 7 8 7 8 7 8 9 12 13 14 14 13 13 12 12 12 12 12 12 13 13 13 14
11 11 11 10 8 6 6 7 7 9 10 9 7 7 7 8 8 7 6 5 6 6 9 10 13 15 14 14 14 14 14 14 15 15 15 15 16 16
13 12 12 12 12 9 6 5 6 6 8 9 8 8 8 9 8 7 7 6 5 4 6 6 7 7 9 12 14 15 15 15 15 16 16 16 16 16
13 12 12 13 14 14 12 9 7 8 8 8 9 9 10 11 9 9 9 8 5 4 5 5 5 6 7 8 12 15 15 16 16 16 16 16 16 16
12 11 11 12 15 13 14 14 12 11 11 9 9 9 10 11 12 13 11 9 7 8 7 6 5 8 8 10 13 14 15 16 16 17 17 16 15 15
12 12 12 10 12 12 12 12 11 10 11 11 10 10 8 10 13 12 11 10 10 6 4 6 6 8 9 10 12 13 14 15 16 16 17 16 15 14
12 13 12 12 10 10 10 10 10 9 10 12 12 8 7 7 11 11 12 12 9 5 3 5 8 9 9 9 10 12 13 13 14 15 15 16 15 14
10 10 10 10 10 12 11 10 10 8 8 9 10 9 8 10 15 15 14 13 11 6 4 6 10 8 7 7 8 9 10 11 11 11 11 11 9 6
8 8 9 13 11 12 10 9 7 6 8 9 9 10 9 9 12 12 12 13 13 7 10 8 9 6 7 9 8 8 9 9 9 7 5 2 4 3
7 6 5 13 13 12 10 6 4 6 8 8 9 9 9 9 9 8 8 7 6 9 13 9 8 7 10 10 8 9 9 9 9 9 8 6 2 6
6 1 5 10 11 11 10 8 8 8 8 9 10 9 9 10 10 8 9 9 10 10 10 8 9 8 8 8 9 9 9 10 9 9 9 8 7 7
9 7 10 10 9 6 8 10 9 8 8 9 9 8 8 10 10 10 11 11 10 8 7 8 9 11 9 10 10 10 10 10 10 10 9 8 8 7
7 7 8 9 9 9 8 7 7 7 8 8 8 9 10 10 11 11 12 11 10 12 11 10 10 9 9 9 11 11 10 9 10 9 8 9 8 7
6 8 8 9 9 8 8 7 7 7 7 7 8 9 11 12 12 12 12 12 13 13 13 13 12 11 9 8 7 10 10 9 10 10 9 8 9 8
8 8 8 8 7 7 6 6 5 5 5 6 7 10 12 13 13 13 13 12 12 13 13 13 13 12 12 12 8 6 8 9 10 10 9 8 7 8
9 8 7 6 6 6 5 5 4 4 5 6 7 10 12 14 15 14 13 14 13 13 13 13 13 12 10 9 10 10 8 9 9 10 10 9 5 5
7 6 5 5 5 5 4 4 4 4 5 6 8 10 11 14 14 14 13 15 14 14 15 13 11 9 6 6 10 11 10 5 1 5 8 9 8 8
5 5 5 5 5 4 4 4 4 4 6 6 7 10 11 12 14 15 14 14 13 13 13 11 12 10 8 8 8 11 11 11 5 2 2 3 5 6
4 4 4 4 4 4 4 4 5 4 5 7 8 10 11 12 12 12 13 13 12 12 11 12 12 10 9 8 8 9 13 12 11 10 9 9 6 4
Wind_Direction
250 238 237 236 231 229 227 226 235 231 192 163 173 145 147 106 64 63 68 66 66 104 167 195 205 204 201 198 197 194 192 194 199 203 204 206 206 207
263 262 247 242 233 226 224 221 227 248 240 156 167 143 122 125 99 85 85 90 67 74 88 104 123 150 168 175 175 179 182 185 189 193 196 200 204 203
247 253 252 252 245 231 224 219 217 222 229 196 169 153 166 154 125 105 88 81 76 69 78 86 93 101 113 128 140 151 164 173 179 185 188 188 187 184
232 237 250 252 248 244 234 222 216 215 222 215 189 178 172 154 129 115 100 85 81 71 75 79 82 87 92 98 105 113 121 128 131 134 133 134 134 127
230 226 229 235 255 252 244 233 221 212 220 220 204 176 162 148 134 118 105 98 90 88 81 79 80 82 84 88 92 95 97 98 97 95 94 94 96 98
230 227 224 216 223 244 259 253 241 222 212 218 207 185 167 163 156 147 134 117 101 88 82 85 88 85 86 89 94 95 93 92 91 90 88 87 87 88
231 227 223 213 206 206 222 252 264 244 219 212 209 196 177 170 174 168 143 127 100 113 114 112 112 108 101 97 97 100 98 95 93 92 90 88 87 87
233 230 222 204 204 201 205 213 237 254 240 220 212 207 191 183 176 165 153 155 134 140 122 112 115 109 105 95 99 103 103 101 99 97 94 92 90 89
230 229 228 208 193 199 199 203 217 236 252 257 240 226 202 187 176 174 176 171 138 146 132 112 109 99 94 94 100 103 104 104 104 102 99 97 94 92
226 223 227 221 198 197 195 198 207 215 227 242 252 252 239 195 182 177 154 120 111 118 119 113 111 103 101 105 100 102 104 105 106 106 105 101 97 92
225 222 219 220 193 185 208 208 209 214 216 227 242 260 279 202 170 155 147 142 134 133 124 117 124 113 108 112 108 101 104 108 112 115 117 119 121 117
220 222 218 223 184 180 213 220 220 216 212 210 221 228 223 179 166 170 166 159 144 142 166 136 143 131 120 129 137 139 123 110 115 125 136 147 167 144
223 218 209 181 180 188 218 232 232 229 220 217 212 209 202 185 180 180 178 171 161 150 161 151 157 147 131 143 153 159 152 152 150 147 161 161 2 351
239 232 195 164 177 189 209 223 220 230 229 219 212 200 189 180 177 172 163 156 147 146 154 151 150 152 141 146 153 165 166 169 169 168 166 159 113 56
246 188 141 160 177 194 211 210 213 223 226 220 212 200 181 166 154 139 118 101 98 121 137 134 134 141 148 151 154 164 170 175 180 177 171 177 175 166
227 185 170 181 216 227 193 201 219 224 224 223 211 187 160 153 151 146 139 132 123 124 136 149 152 157 165 160 159 167 172 173 178 180 179 180 184 185
205 200 202 196 205 212 216 214 215 214 218 222 205 176 160 153 150 150 149 147 146 152 159 169 170 179 176 166 166 168 171 171 174 172 184 185 186 188
211 210 210 210 212 214 216 213 214 215 214 213 200 172 160 155 151 153 156 156 156 157 161 165 165 168 169 165 167 169 171 173 168 170 195 196 188 187
220 222 216 215 218 219 218 218 219 213 205 202 191 168 159 156 154 156 159 159 159 160 161 163 168 171 172 164 165 202 178 167 167 174 196 207 202 183
225 222 215 216 219 222 217 213 220 208 197 192 180 166 160 157 156 158 161 161 161 161 161 167 175 180 183 168 159 172 196 178 176 182 187 202 180 100
216 223 221 221 220 217 215 213 214 204 188 183 172 162 159 157 157 158 159 160 162 164 167 171 171 179 175 154 157 163 173 169 123 193 191 192 191 189
216 224 227 228 221 210 201 204 199 193 177 176 168 158 157 155 154 156 157 161 165 167 167 159 159 177 178 177 172 160 165 167 154 47 293 257 223 211
214 226 226 223 212 194 188 191 187 182 170 164 159 153 152 151 151 153 156 161 165 166 162 158 166 180 183 185 184 167 164 174 186 192 210 210 203 167